DW4464 Weather Reports


time (UTC)temp
C
wind
direction
speed
KPH
gust
KPH
rain 1hr
cm
rain 24hr
cm
rain mn
cm
humidity
%
barometer
mb
20190920101638 11 48 0.0 0.0 0.00 0.00 0.00 32 1097.8
20190920100213 11 62 0.0 0.0 0.00 0.00 0.00 32 1097.8
20190920093141 11 62 0.0 1.6 0.00 0.00 0.00 14 1097.8
20190920091545 12 60 3.2 4.8 0.00 0.00 0.00 33 1097.8
20190920090045 13 45 3.2 6.4 0.00 0.00 0.00 44 1097.9
20190920084539 13 60 3.2 6.4 0.00 0.00 0.00 38 1097.8
20190920083109 13 80 1.6 6.4 0.00 0.00 0.00 34 1097.9
20190920081530 13 56 4.8 9.7 0.00 0.00 0.00 4 1097.9
20190920080015 12 57 4.8 6.4 0.00 0.00 0.00 100 1097.6
20190920074508 12 143 0.0 0.0 0.00 0.00 0.00 100 1097.6
20190920071706 13 143 0.0 4.8 0.00 0.00 0.00 30 1097.2
20190920071502 13 143 0.0 4.8 0.00 0.00 0.00 30 1097.2
20190920070156 13 82 1.6 6.4 0.00 0.00 0.00 34 1097.1
20190920064653 13 6 0.0 3.2 0.00 0.00 0.00 32 1096.9
20190920063115 13 71 1.6 4.8 0.00 0.00 0.00 41 1096.9
20190920061642 13 69 1.6 6.4 0.00 0.00 0.00 47 1097.1
20190920060117 14 69 4.8 9.7 0.00 0.00 0.00 55 1097.0
20190920054612 14 63 3.2 4.8 0.00 0.00 0.00 52 1097.0
20190920053026 14 65 0.0 1.6 0.00 0.00 0.00 52 1097.0
20190920051542 14 65 0.0 1.6 0.00 0.00 0.00 52 1097.0
20190920050030 15 65 0.0 1.6 0.00 0.00 0.00 55 1097.1
20190920044521 14 66 0.0 3.2 0.00 0.00 0.00 53 1097.0
20190920043014 14 62 1.6 4.8 0.00 0.00 0.00 50 1097.0
20190920041506 15 64 0.0 3.2 0.00 0.00 0.00 53 1097.2
20190920040010 15 64 0.0 3.2 0.00 0.00 0.00 58 1097.2
20190920034608 16 322 0.0 3.2 0.00 0.00 0.00 61 1097.1
20190920033132 16 109 0.0 0.0 0.00 0.00 0.00 63 1096.9
20190920031644 17 352 0.0 3.2 0.00 0.00 0.00 62 1097.0
20190920030120 17 330 0.0 6.4 0.00 0.00 0.00 58 1097.1
20190920024621 17 269 0.0 4.8 0.00 0.00 0.00 55 1097.0
20190920023120 17 313 0.0 0.0 0.00 0.00 0.00 54 1096.9
20190920021638 18 316 0.0 0.0 0.00 0.00 0.00 52 1097.0
20190920020235 19 267 0.0 9.7 0.00 0.00 0.00 49 1097.1
20190920014552 20 296 1.6 6.4 0.00 0.00 0.00 47 1097.1
20190920013055 21 300 0.0 4.8 0.00 0.00 0.00 45 1097.1
20190920011619 21 270 0.0 11.3 0.00 0.00 0.00 44 1097.1
20190920010042 21 210 3.2 9.7 0.00 0.00 0.00 43 1097.1
20190920004554 21 240 1.6 16.1 0.00 0.00 0.00 42 1097.0
20190920003034 21 254 3.2 9.7 0.00 0.00 0.00 42 1097.1
20190920001525 21 248 4.8 12.9 0.00 0.00 0.00 42 1096.9
20190920000045 21 6 8.0 14.5 0.00 0.00 0.00 43 1097.1
20190919234521 21 261 1.6 9.7 0.00 0.00 0.00 42 1097.3
20190919233008 21 307 4.8 16.1 0.00 0.00 0.00 43 1097.3
20190919230151 21 334 6.4 16.1 0.00 0.00 0.00 42 1097.5
20190919224731 21 270 4.8 12.9 0.00 0.00 0.00 41 1097.5
20190919223116 21 284 4.8 12.9 0.00 0.00 0.00 44 1097.4
20190919221601 21 37 1.6 16.1 0.00 0.00 0.00 46 1097.5
20190919220047 21 286 6.4 12.9 0.00 0.00 0.00 46 1097.7
20190919214606 21 320 3.2 12.9 0.00 0.00 0.00 41 1097.8
20190919213033 21 309 4.8 14.5 0.00 0.00 0.00 44 1097.9
20190919211623 21 307 3.2 12.9 0.00 0.00 0.00 46 1098.0
20190919210043 20 335 1.6 11.3 0.00 0.00 0.00 49 1098.1
20190919204538 20 252 6.4 14.5 0.00 0.00 0.00 48 1098.3
20190919203022 20 257 4.8 17.7 0.00 0.00 0.00 51 1098.3
20190919201507 20 261 4.8 14.5 0.00 0.00 0.00 52 1098.6
20190919200003 20 224 6.4 12.9 0.00 0.00 0.00 50 1098.8
20190919194713 20 287 6.4 16.1 0.00 0.08 0.00 52 1099.0
20190919193125 19 242 4.8 12.9 0.00 0.08 0.00 55 1099.1
20190919191643 18 253 4.8 12.9 0.00 0.08 0.00 56 1099.2
20190919190202 19 184 1.6 16.1 0.00 0.08 0.00 58 1099.4
20190919184636 18 231 4.8 11.3 0.00 0.18 0.00 60 1099.5
20190919183117 18 252 4.8 9.7 0.00 0.18 0.00 60 1099.4
20190919181608 17 321 6.4 11.3 0.00 0.18 0.00 59 1099.6
20190919180055 18 264 4.8 9.7 0.00 0.18 0.00 61 1099.7
20190919174535 17 254 3.2 9.7 0.00 0.71 0.00 62 1099.6
20190919173036 17 277 4.8 16.1 0.00 0.71 0.00 61 1099.5
20190919171520 17 300 1.6 6.4 0.00 0.71 0.00 61 1099.5
20190919170029 17 309 0.0 6.4 0.00 0.71 0.00 61 1099.5
20190919164515 17 308 1.6 6.4 0.00 0.76 0.00 61 1099.7
20190919163018 17 210 0.0 3.2 0.00 0.76 0.00 60 1099.8
20190919161502 15 326 0.0 3.2 0.00 0.76 0.00 45 1099.9
20190919160237 15 67 0.0 0.0 0.00 0.76 0.00 9 1100.0
20190919154704 13 340 0.0 3.2 0.00 0.76 0.00 100 1100.0
20190919153113 13 81 1.6 3.2 0.00 0.76 0.00 100 1099.8
20190919151627 12 328 0.0 0.0 0.00 0.76 0.00 100 1099.6
20190919150135 12 67 0.0 0.0 0.00 0.76 0.00 100 1099.5
20190919144622 11 67 0.0 0.0 0.00 0.76 0.00 100 1099.3
20190919143051 10 67 0.0 0.0 0.00 0.76 0.00 100 1099.2
20190919141619 9 67 0.0 0.0 0.00 0.76 0.00 100 1099.0
20190919140045 9 67 0.0 0.0 0.00 0.76 0.00 100 1098.9
20190919134546 9 67 0.0 1.6 0.00 0.76 0.00 100 1098.7
20190919133013 9 13 0.0 0.0 0.00 0.76 0.00 100 1098.5
20190919131509 9 6 0.0 0.0 0.00 0.76 0.00 100 1098.5
20190919130003 9 6 0.0 0.0 0.00 0.76 0.00 100 1098.4
20190919124700 10 6 0.0 0.0 0.00 0.76 0.00 100 1098.3
20190919123249 10 6 0.0 0.0 0.00 0.76 0.00 100 1098.3
20190919121716 10 6 0.0 0.0 0.00 0.76 0.00 100 1098.2
20190919120122 10 6 0.0 0.0 0.00 0.76 0.00 100 1098.1
20190919114610 10 6 0.0 0.0 0.00 0.76 0.00 100 1098.1
20190919113143 10 6 0.0 1.6 0.00 0.76 0.00 100 1098.1
20190919111633 10 6 0.0 0.0 0.00 0.76 0.00 100 1098.1
20190919110120 10 6 0.0 1.6 0.00 0.76 0.00 100 1098.1
20190919104602 10 335 0.0 0.0 0.00 0.76 0.00 100 1098.0
20190919103057 11 334 0.0 0.0 0.00 0.76 0.00 100 1098.1